If you wish to contribute or participate in the discussions about articles you are invited to join SKYbrary as a registered user

 Actions

Assiut International Airport

From SKYbrary Wiki

HEAT
Airport
ICAO: HEAT – IATA: ATZ
Summary
Name Assiut International Airport
Region Africa
Territory Egypt EG.gif
Location Asyut, Al Wadi al Jadid
Serving Asyut
Elevation 235.306 m
772 ft
772 ft235.306 m
Type medium airport
Coordinates 27° 2' 47.4288", 31° 0' 43.1388"
Runways
Designator Length Width Surface ROPS
13/31 3019 m9,904.856 ft 45 m147.638 ft ASP /


METAR
Observation HEAT 191400Z 34012KT CAVOK 38/13 Q1011 NOSIG
Station Asyut
Date/Time 19 June 2018 14:00:00
Wind direction 340°
Wind speed 12 kts
Lowest cloud amount clouds and visibility OK
Temperature 38°C
Dew point 13°C
Humidity 22%
QNH 1011 hPa
Weather condition n/a

Maps

Terrain

Loading map...

Airport Layout

Loading map...


Accidents & Serious Incidents at or in vicinity of HEAT

None on SKYbrary